www.pogodaiklimat.ru

Погода и климат >> Архив погоды >> Монголия >> Замун-Ууд


ПОГОДА в Замун-Ууде

  • Прогноз погоды в Замун-Ууде
  • Монитор погоды в Замун-Ууде

АРХИВ ПОГОДЫ в Замун-Ууде

Время (UTC), дата Ветер
(напр.,м/с)
 
Видим.   Явления Облачность Т
(С)
Тd
(С)
f
(%)
Тe
(С)
Тes
(С)
Комфортность P
(гПа)
Po
(гПа)
Тmin
(С)
Tmax
(С)
R
(мм)
R24
(мм)
S
(см)
09 12.06 С 5 50 км 8/8 600 м
[Cb calv]
+32.2 +1.3 14 +29 +30 жарко 999.5 896.5
12 12.06 СВ 7
{16}
50 км 8/0
[Ac und]
+26.6 +5.5 26 +26 +26 жарко 1003.6 898.4 +33.5
15 12.06 С 4 н/о 8/0
[As trans]
+23.4 +6.6 34 +24 +24 комфорт 1007.1 900.5
18 12.06 СВ 4 н/о 6/0
[Ac und]
+20.5 +2.3 30 +21 +21 комфорт 1009.5 901.6
21 12.06 С 2 50 км 3/0
[Ci]
+16.0 +2.1 39 +16 +16 1011.8 902.1
00 13.06 С 2 50 км ясно +21.0 +2.3 29 +22 +28 комфорт 1010.7 902.9 +15.7
03 13.06 С 4 50 км ясно +25.4 -1.4 17 +24 +35 комфорт 1008.8 902.6
06 13.06 С 3 50 км 3/0
[Ci]
+27.5 -3.4 13 +25 +39 комфорт 1006.3 901.2
09 13.06 С 4 50 км 3/0
[Ci]
+28.1 -5.1 11 +25 +29 комфорт 1004.8 900.1
12 13.06 СВ 2 50 км 3/0
[Ac lent Ci]
+25.5 -3.9 14 +23 +23 комфорт 1006.2 900.4 +28.8
15 13.06 С 1 н/о 5/0
[Cs]
+22.0 -4.2 17 +21 +21 комфорт 1008.5 901.3
18 13.06 В 2 н/о 3/0
[Ci fib]
+18.4 0.0 29 +19 +19 1010.4 901.7
21 13.06 В 3 50 км 3/0
[Ci]
+14.8 +1.3 40 +14 +14 1012.2 902.1
00 14.06 ЮВ 3 50 км ясно +19.5 +1.9 31 +20 +25 1011.2 902.9 +14.6
03 14.06 Ю 4 50 км ясно +24.6 +1.5 22 +23 +35 комфорт 1008.9 902.6
06 14.06 В 4 50 км ясно +27.2 +1.6 19 +25 +37 комфорт 1005.9 900.8
09 14.06 В 3 50 км 3/0
[Ci]
+27.7 +0.4 17 +26 +31 жарко 1004.5 899.6
12 14.06 Ю 2 50 км 6/0
[Cs]
+25.6 -0.5 18 +24 +24 комфорт 1005.8 900.1 +28.6
15 14.06 В 2 н/о 8/0
[Cs]
+21.8 +0.3 24 +21 +21 комфорт 1007.6 900.4
18 14.06 В 4 н/о 8/0
[As trans]
+17.8 -2.0 26 +18 +18 1008.4 899.8
21 14.06 В 4 50 км 8/0
[As trans]
+16.2 +0.3 34 +16 +16 1008.9 899.6
00 15.06 В 5 50 км 6/0
[Cs]
+19.7 +2.1 31 +20 +23 1007.1 899.3 +15.9
03 15.06 ЮВ 7 50 км 8/0
[Cs]
+26.1 -0.8 17 +24 +28 комфорт 1003.3 898.0
06 15.06 ЮВ 5 50 км 9/0
[Ac As]
+28.6 -1.5 14 +26 +29 жарко 999.9 895.9
09 15.06 В 5 50 км 10/0
[As op]
+26.7 +1.9 20 +25 +26 комфорт 999.7 895.0
12 15.06 СЗ 4 50 км в посл. час дождь 10/0
[As op]
+21.0 +10.5 51 +23 +23 комфорт 1001.8 894.9 +29.6 0.0
15 15.06 СЗ 5 н/о 10/0
[As op]
+17.3 +12.8 75 +17 +17 1004.3 895.9
18 15.06 С 5 н/о слаб. дождь 10/0
[As op]
+16.4 +14.0 86 +15 +15 1003.8 895.1
21 15.06 СЗ 2 50 км {дождь} 10/0 600 м
[As op]
+14.3 +11.8 85 +14 +14 1005.5 895.9
00 16.06 С 3 50 км {дождь} 9/0
[As trans]
+14.9 +12.2 84 +14 +16 1006.7 897.2 +14.0 2
03 16.06 С 2 50 км 6/0
[Cs]
+19.2 +11.5 61 +21 +36 комфорт 1004.4 896.8
06 16.06 С 3 50 км 4/0
[Ci]
+23.7 +8.9 39 +24 +38 комфорт 1001.5 895.6
09 16.06 С 2 50 км 5/3 1000 м
[Cu hum Cs]
+25.4 +8.8 35 +26 +30 жарко 1000.0 894.8
12 16.06 З 8 50 км гроза без осадков 8/4 600 м
[Cb calv Ac lent Ci]
+21.9 +9.4 45 +23 +23 комфорт 1002.4 895.8 +25.8
15 16.06 С 1
{11}
н/о {гроза} 3/0
[Ci]
+18.8 +12.1 65 +21 +21 комфорт 1004.5 896.6
18 16.06 В 2 н/о 3/0
[Ci]
+16.1 +12.3 78 +16 +16 1005.0 896.1
21 16.06 В 2 50 км 8/0
[Ac und Ci]
+14.7 +12.0 84 +14 +14 1006.2 896.7
00 17.06 В 4 50 км 8/0
[Ac cast Ci fib]
+16.9 +12.0 73 +16 +18 1004.9 896.3 +14.6
03 17.06 В 4 50 км 4/0
[Ac cast Ci fib]
+22.5 +11.3 49 +25 +34 комфорт 1003.9 897.3
06 17.06 С 3 50 км 3/0
[Ci]
+28.0 +7.8 28 +28 +41 жарко 1000.7 896.4
09 17.06 С 3 50 км 3/3
[Cu hum]
+28.5 +6.6 25 +28 +31 жарко 1000.1 895.9
12 17.06 СВ 4 50 км 3/0
[Ac lent]
+25.9 +7.5 31 +26 +26 жарко 1002.2 897.0 +29.8
15 17.06 В 2 н/о 5/0
[Ac trans]
+21.6 +7.1 39 +22 +22 комфорт 1005.5 898.5
18 17.06 В 2 н/о 8/0
[Ac und Ci]
+18.2 +6.1 45 +19 +19 1007.3 899.0
21 17.06 СЗ 1 50 км 4/0
[Ac lent]
+15.1 +6.6 57 +16 +16 1009.1 899.4
00 18.06 штиль 0 50 км ясно +21.9 +9.1 44 +23 +31 комфорт 1007.3 900.2 +15.0
03 18.06 С 2 50 км 3/0
[Cc]
+26.6 +5.0 25 +26 +42 жарко 1005.7 900.3
06 18.06 С 4 50 км 3/3 1000 м
[Cu hum]
+28.4 +4.0 21 +27 +35 жарко 1003.4 898.9
09 18.06 С 4 50 км 3/3 1000 м
[Cu med, cong]
+29.2 +7.2 25 +28 +31 жарко 1002.3 898.2
12 18.06 В 5 50 км 3/3 1000 м
[Cu med, cong]
+25.9 +9.2 35 +26 +26 жарко 1004.8 899.3 +30.0
15 18.06 СВ 2 н/о ясно +22.0 +9.5 45 +24 +24 комфорт 1008.1 901.0
18 18.06 СВ 2 н/о 1/0
[Ci fib]
+19.4 +9.0 51 +21 +21 комфорт 1009.4 901.2
21 18.06 В 2 50 км 3/0
[Ci]
+17.9 +10.0 60 +18 +18 1009.9 901.1
00 19.06 ЮВ 3 50 км 3/0
[Ci fib]
+20.9 +10.4 51 +23 +28 комфорт 1009.9 902.1 +17.5
03 19.06 ЮВ 3 50 км 6/3 1000 м
[Cu hum Cs]
+27.3 +7.2 28 +27 +36 жарко 1006.9 901.8
06 19.06 ЮВ 4
{10}
50 км 8/3 1000 м
[Cu med, cong Cs]
+30.0 +3.9 19 +28 +35 жарко 1004.1 900.0

 

Местоположение метеостанции Замун-Ууд (Монголия): широта 43.73 долгота 111.90 высота над уровнем моря 964 м.

В архиве по умолчанию представлена погода в Замун-Ууде за последнюю неделю. Архивные данные за месяц целиком и за предыдущие месяцы, начиная с января 2011 года, Вы можете получить, выбрав интересующий диапазон дат из раскрывающегося списка и нажав кнопку "Ввод!".


*Определитесь, кто Вы:
робот инопланетянин человек

Внимание! Время в таблицах - всемирное. Для получения местного времени необходимо прибавить поправку, которая равна 8 ч.

Смотрите также архив погоды в соседних городах и на ближайших метеорологических станциях:

Погода в Эрэн-Хото (Внутренняя Монголия, Китай) (12 км)
Погода в Чжурихе Чжень (Внутренняя Монголия, Китай) (169 км)
Погода в Сайншанде (Монголия) (193 км)
Погода в Мандале (Внутренняя Монголия, Китай) (196 км)
Погода в Нарэнбаулаге (Внутренняя Монголия, Китай) (205 км)
Погода в Баяндэлгэре (Монголия) (225 км)
Погода в Хатанбулаге (Монголия) (226 км)
Погода в Баянчагане (Внутренняя Монголия, Китай) (247 км)
Погода в Дархан-Мумингане (Внутренняя Монголия, Китай) (256 км)
Погода в Хуадэ (Внутренняя Монголия, Китай) (266 км)

Пояснения к столбцам:

Ветер - указаны скорость ветра в м/с - средняя за 10 мин, порывы в срок и между сроками (в фигурных скобках) и направление, откуда дует ветер: С - северный, СВ - северо-восточный, В - восточный, ЮВ - юго-восточный, Ю - южный, ЮЗ - юго-западный, З - западный, СЗ - северо-западный.
Видимость - горизонтальная дальность видимости в метрах или километрах. При видимости от 1 до 10 км при отсутствии осадков обычно наблюдается дымка, при ухудшении видимости до 1 км и менее - туман. В сухую погоду видимость может ухудшаться дымом, пылью или мглою.
Явления - указаны атмосферные явления, наблюдавшиеся в срок или в последний час перед сроком; фигурными скобками обозначены явления, наблюдавшиеся между сроками (за 1-3 часа до срока); квадратными скобками обозначены град или гололедные отложения с указанием их диаметра в мм.
Облачность - указаны через наклонную черту общая и нижняя облачность в баллах и высота нижней границы облаков в метрах; квадратными скобками обозначены формы облаков: Ci - перистые, Cs - перисто-слоистые, Cc - перисто-кучевые, Ac - высококучевые, As - высокослоистые, Sc - слоисто-кучевые, Ns - слоисто-дождевые, Cu - кучевые, Cb - кучево-дождевые. Подробнее классификацию облаков см. в Атласе облаков (PDF).
T - Температура воздуха - температура, измеренная на высоте 2 м над землей.
Td - Температура точки росы - температура, при понижении до которой содержащийся в воздухе водяной пар достигнет насыщения.
f - Относительная влажность воздуха - влажноcть воздуха, измеренная на высоте 2 м над землей.
Te - Эффективная температура - температура, которую ощущает одетый по сезону человек в тени. Характеристика душности погоды. При расчете учитывается влияние влажности воздуха и скорости ветра на теплоощущения человека.
Tes - Эффективная температура на солнце - температура, которую ощущает человек, с поправкой на солнечный нагрев. Характеристика знойности погоды. Зависит от высоты солнца над горизонтом, облачности и скорости ветра. Ночью, в пасмурную погоду, а также при ветре 12 м/с и более поправка равна нулю.
P - Атмосферное давление - приведенное к уровню моря атмосферное давление.
Po - Атмосферное давление - измеренное на уровне метеостанции атмосферное давление.
Tmin - Минимальная температура - минимум температуры воздуха на высоте 2 м над землей.
Tmax - Максимальная температура - максимум температуры воздуха на высоте 2 м над землей.
R - Количество осадков - Количество выпавших осадков за период времени, мм. При наведении курсора мыши на число - период времени, за который выпало указанное количество осадков.
R24 - Количество осадков - Количество выпавших осадков за 24 часа, мм.
S - Снежный покров - Высота снежного покрова, см. При наведении курсора мыши на число - состояние снежного покрова и степень покрытия местности в баллах.